This is the latest recevied weather packets stored in our database for station/object KE1THD. If no packets are shown the sender has not sent any weather packets the latest 10 day(s).
| Time | Temp. | Humidity | Pressure | Rain* | Wind** | Luminosity | Snow |
|---|---|---|---|---|---|---|---|
| 1776986787 | 26.67° C | 51% | 1002.8 hPa | 0 mm | - | 54 W/m² | - |
| 1776986484 | 26.67° C | 52% | 1002.8 hPa | 0 mm | - | 61 W/m² | - |
| 1776986181 | 26.67° C | 51% | 1002.9 hPa | 0 mm | - | 65 W/m² | - |
| 1776985877 | 26.67° C | 52% | 1002.9 hPa | 0 mm | - | 73 W/m² | - |
| 1776985575 | 26.67° C | 52% | 1002.7 hPa | 0 mm | - | 72 W/m² | - |
| 1776985271 | 26.67° C | 52% | 1003 hPa | 0 mm | - | 76 W/m² | - |
| 1776984967 | 26.67° C | 51% | 1002.7 hPa | 0 mm | - | 73 W/m² | - |
| 1776984663 | 26.67° C | 51% | 1002.7 hPa | 0 mm | - | 78 W/m² | - |
| 1776984358 | 26.67° C | 51% | 1002.9 hPa | 0 mm | - | 89 W/m² | - |
| 1776984055 | 27.22° C | 52% | 1003.2 hPa | 0 mm | - | 94 W/m² | - |
| 1776983750 | 27.22° C | 52% | 1003 hPa | 0 mm | - | 81 W/m² | - |
| 1776983446 | 26.67° C | 52% | 1002.9 hPa | 0 mm | - | 79 W/m² | - |
| 1776983143 | 27.22° C | 51% | 1002.9 hPa | 0 mm | - | 78 W/m² | - |
| 1776982840 | 27.22° C | 52% | 1003.2 hPa | 0 mm | - | 117 W/m² | - |
| 1776982537 | 27.22° C | 53% | 1003.3 hPa | 0 mm | - | 136 W/m² | - |
| 1776982232 | 27.22° C | 52% | 1003.4 hPa | 0 mm | - | 127 W/m² | - |
| 1776981927 | 27.22° C | 51% | 1003.4 hPa | 0 mm | - | 273 W/m² | - |
| 1776981623 | 27.78° C | 53% | 1003.3 hPa | 0 mm | - | 314 W/m² | - |
| 1776981318 | 27.78° C | 51% | 1003.3 hPa | 0 mm | - | 280 W/m² | - |
| 1776981015 | 27.78° C | 52% | 1003.4 hPa | 0 mm | - | 405 W/m² | - |
| 1776980711 | 27.22° C | 52% | 1003.5 hPa | 0 mm | - | 422 W/m² | - |
| 1776980408 | 27.22° C | 52% | 1003.6 hPa | 0 mm | - | 170 W/m² | - |
| 1776980104 | 27.78° C | 52% | 1003.6 hPa | 0 mm | - | 177 W/m² | - |
| 1776979800 | 27.78° C | 51% | 1003.8 hPa | 0 mm | - | 272 W/m² | - |
| 1776979497 | 27.78° C | 52% | 1003.6 hPa | 0 mm | - | 286 W/m² | - |
* Rain latest hour (hover to see other rain measurements)
** Current wind speed in m/s (hover to see current wind gust speed)